CAPE
4 4 6 3 1 4 2 6 9 10 14 15 19 21 28 34 28 0 0 0 0 0 0 1 4 8 0 0 0 0 0 0 0 0 0 0 0 0 0 0 0 0 0 0 0
9 8 8 6 4 4 4 5 6 8 13 12 16 21 26 31 7 0 10 2 8 0 2 0 7 46 9 0 0 5 0 0 0 0 0 0 0 0 0 0 0 0 0 0 0
8 11 14 11 7 7 6 7 5 8 15 16 21 21 22 16 0 8 0 0 0 0 0 0 4 29 57 18 2 4 6 0 0 0 0 0 0 0 0 0 0 0 0 0 0
8 10 10 8 7 11 9 8 5 6 13 13 21 30 27 8 0 19 0 0 0 0 6 24 12 20 22 49 11 12 4 1 0 0 0 0 0 0 0 0 0 0 0 23 1
11 8 6 11 11 15 13 10 4 7 14 12 12 27 24 0 0 0 0 0 0 0 5 3 11 14 14 23 51 13 0 0 0 0 0 0 0 0 0 0 0 0 15 32 18
18 12 13 14 15 20 19 6 5 5 12 7 19 25 21 0 0 0 0 0 0 0 0 0 16 30 25 17 50 17 12 0 0 0 0 0 0 0 0 0 0 0 0 12 18
24 15 21 12 12 20 27 17 10 7 5 9 23 20 5 0 0 0 0 0 0 0 0 0 0 18 54 55 29 80 50 16 0 0 0 0 0 0 0 0 0 0 0 4 24
23 36 27 28 17 20 26 16 10 0 0 7 14 11 5 0 0 0 0 0 0 0 0 0 0 0 25 43 63 65 92 50 0 0 0 0 0 0 0 0 0 0 0 0 9
16 24 36 21 21 17 22 23 7 0 0 1 0 14 1 0 0 0 0 0 0 0 0 0 0 0 57 93 91 57 37 27 3 0 1 0 0 0 0 0 0 0 0 0 0
46 9 25 17 30 8 14 14 0 0 0 0 0 3 0 0 0 0 0 0 0 0 0 0 0 2 59 86 34 0 8 0 1 0 0 0 0 0 0 0 0 0 0 0 0
54 21 13 15 8 10 0 0 0 0 0 0 0 11 0 0 0 0 0 0 0 0 0 0 4 7 0 13 23 23 19 9 0 0 27 7 4 0 0 0 0 0 0 0 0
67 63 5 16 11 11 1 0 0 0 0 0 0 0 0 0 0 0 0 0 0 0 0 1 2 0 0 38 79 78 73 20 17 25 40 17 25 6 0 0 0 0 0 0 0
73 44 4 10 16 6 3 5 7 0 0 0 0 0 0 0 0 0 0 0 0 0 0 0 0 0 10 36 73 54 64 29 78 94 33 3 5 0 0 0 0 0 0 0 0
57 56 11 17 7 4 11 6 7 1 0 0 0 0 0 0 0 0 0 0 2 0 0 0 0 0 8 36 70 74 42 48 135 97 55 9 7 0 0 0 0 0 0 0 0
51 35 16 0 3 10 4 12 2 5 3 0 0 1 0 0 0 0 0 2 0 0 11 2 0 0 0 3 18 49 81 86 142 122 49 1 2 0 1 0 0 0 0 0 0
58 9 16 3 4 12 7 1 17 3 1 0 3 3 0 0 0 0 0 0 0 7 3 20 12 3 19 34 22 36 92 143 168 213 68 38 9 0 0 0 0 0 0 0 0
37 16 11 2 11 18 2 2 3 4 0 0 0 0 0 0 0 0 0 0 0 8 19 32 30 14 0 55 71 13 148 32 14 60 30 20 22 2 0 0 0 0 0 0 0
5 24 7 3 9 5 2 7 2 0 0 0 0 0 0 0 0 0 0 0 0 2 30 38 8 4 0 3 46 3 23 11 132 2 39 0 7 0 0 0 0 0 0 0 0
7 6 4 13 9 8 5 7 3 0 0 0 0 0 0 0 0 0 0 0 0 24 43 42 24 33 34 0 28 22 93 10 10 4 208 87 0 0 0 0 0 0 0 0 0
1 2 11 18 17 22 17 3 0 0 0 0 0 0 0 0 0 16 5 0 4 36 43 38 27 0 0 58 36 51 15 74 9 68 120 48 65 0 0 0 0 0 0 0 0
0 1 24 23 10 27 13 3 0 0 0 0 0 0 0 2 13 25 16 3 13 27 59 141 47 0 16 54 7 103 117 48 31 0 66 73 46 1 4 0 0 0 0 0 0
3 5 18 12 19 34 12 3 0 1 0 0 0 0 0 1 21 27 29 46 22 0 0 6 103 11 0 2 50 7 11 13 9 7 0 63 35 16 3 0 0 0 0 0 0
4 21 25 14 11 14 9 4 3 2 0 0 0 0 3 13 24 23 25 19 26 1 1 0 59 61 24 13 0 10 2 5 29 10 12 50 76 0 0 0 0 0 0 0 0
2 8 11 4 8 6 6 7 8 4 4 1 2 6 9 13 27 31 22 6 3 0 0 21 14 22 41 25 13 6 3 2 13 64 52 21 1 17 1 0 0 0 0 0 0
3 6 0 10 19 15 23 8 7 8 0 2 6 7 13 17 0 3 16 12 0 0 16 0 0 0 1 0 1 4 12 11 10 9 16 30 1 22 2 0 0 0 0 0 0
0 5 12 14 3 10 16 8 6 0 9 1 3 7 17 17 1 1 0 16 12 0 0 33 2 0 0 0 0 1 0 1 10 0 2 0 0 4 0 0 0 0 0 0 0
3 4 14 12 13 18 11 0 5 13 8 0 0 9 5 1 1 6 7 12 19 38 25 9 5 2 0 0 0 0 0 0 1 0 1 4 0 6 9 12 2 0 0 0 0
CIN
0 0 0 0 0 0 0 0 0 0 0 0 0 0 0 0 0 0 0 0 0 0 0 0 0 0 0 0 0 0 0 0 0 0 0 0 0 0 0 0 0 0 0 0 0
0 0 0 0 0 0 0 0 0 0 0 0 0 0 0 0 0 0 -2 -2 0 0 0 0 -3 0 0 0 0 0 0 0 0 0 0 0 0 0 0 0 0 0 0 0 0
0 0 0 0 0 0 0 0 0 0 0 0 0 0 0 0 0 0 0 0 0 0 0 0 0 -1 0 0 0 0 0 0 0 0 0 0 0 0 0 0 0 0 0 0 0
0 0 0 0 0 0 0 0 0 0 0 0 0 0 0 0 0 0 0 0 0 0 0 0 0 0 0 0 0 0 0 0 0 0 0 0 0 0 0 0 0 0 0 -140 -22
0 0 0 0 0 0 0 0 0 0 0 0 0 0 0 0 0 0 0 0 0 0 0 0 0 0 0 0 0 0 0 0 0 0 0 0 0 0 0 0 0 0 -27 -110 -147
0 0 0 0 0 0 0 0 0 0 0 0 0 0 0 0 0 0 0 0 0 0 0 0 -9 -1 0 0 0 -1 0 0 0 0 0 0 0 0 0 0 0 0 0 -57 -114
0 0 0 0 0 0 0 0 0 0 0 0 0 0 0 0 0 0 0 0 0 0 0 0 0 -5 0 0 0 -1 0 0 0 0 0 0 0 0 0 0 0 0 0 -42 -91
0 0 0 0 0 0 0 0 0 0 0 0 0 0 0 0 0 0 0 0 0 0 0 0 0 0 -2 -2 -1 0 0 0 0 0 0 0 0 0 0 0 0 0 0 0 -66
0 0 0 0 0 0 0 0 0 0 0 0 0 0 0 0 0 0 0 0 0 0 0 0 0 0 0 0 0 -3 0 0 0 0 -1 0 0 0 0 0 0 0 0 0 0
0 0 0 0 0 0 0 0 0 0 0 0 0 -1 0 0 0 0 0 0 0 0 0 0 0 -2 0 -1 0 0 0 0 0 0 0 0 0 0 0 0 0 0 0 0 0
0 -3 0 0 0 0 -1 0 0 0 0 0 0 0 0 0 0 0 0 0 0 0 0 0 0 0 0 0 0 0 0 0 0 0 -1 0 0 0 0 0 0 0 0 0 0
0 0 0 0 0 -1 -6 0 0 0 0 0 0 0 0 0 0 0 0 0 0 0 0 0 0 0 0 0 0 0 0 0 0 0 -1 -1 -1 -1 0 0 0 0 0 0 0
0 -1 0 0 0 -2 0 0 -1 0 0 0 0 0 0 0 0 0 0 0 0 0 0 0 0 0 -1 0 0 -1 0 0 -1 -1 -3 -2 -1 0 0 0 0 0 0 0 0
0 -1 0 0 0 -1 0 0 -12 -21 0 0 0 0 0 0 0 0 0 0 0 0 0 0 0 0 0 0 0 0 0 0 -2 -1 0 -6 0 0 0 0 0 0 0 0 0
0 0 0 0 0 0 0 0 -23 -12 0 0 0 0 0 0 0 0 0 0 0 0 0 0 0 0 0 0 0 0 0 0 0 0 0 -1 0 0 -2 0 0 0 0 0 0
0 0 0 0 -1 0 0 -3 -7 0 0 0 -1 0 0 0 0 0 0 0 0 0 0 0 -1 0 -1 -1 0 -2 -3 0 -2 0 -3 -3 -1 0 0 0 0 0 0 0 0
-1 0 0 0 0 -1 0 -1 0 0 0 0 0 0 0 0 0 0 0 0 0 0 0 0 0 -1 0 0 -1 -9 0 -18 -9 0 -2 0 0 -1 0 0 0 0 0 0 0
0 0 0 -2 -1 0 0 0 0 0 0 0 0 0 0 0 0 0 0 0 0 0 0 0 0 0 0 0 -2 0 -12 -13 0 0 0 0 0 0 0 0 0 0 0 0 0
0 0 0 0 -2 0 0 0 0 0 0 0 0 0 0 0 0 0 0 0 0 -2 0 0 0 -3 -2 0 -6 0 -10 -1 -20 -35 0 0 0 0 0 0 0 0 0 0 0
0 0 0 0 -1 0 0 0 0 0 0 0 0 0 0 0 0 0 0 0 0 -1 -6 0 0 0 -1 -2 -1 -1 -1 0 0 -3 0 -2 0 0 0 0 0 0 0 0 0
0 0 0 0 -1 0 0 0 0 0 0 0 0 0 0 0 0 0 0 -8 0 0 0 0 0 0 -11 -1 -1 -1 0 -1 0 0 -3 -2 -1 -1 -6 0 0 0 0 0 0
0 0 0 0 0 0 0 0 0 0 0 0 0 0 0 0 0 0 0 0 -2 0 0 -3 0 0 0 -22 -3 0 -1 0 0 0 0 0 -7 -6 -9 0 0 0 0 0 0
0 0 0 0 0 0 0 0 0 0 0 0 0 0 0 0 0 0 0 0 -3 -1 0 0 -1 0 0 -18 0 0 0 0 -6 -7 -2 -13 -3 -15 0 0 0 0 0 0 0
0 0 0 0 0 -1 0 0 0 0 0 0 0 0 0 0 0 0 0 -2 -1 0 0 -1 0 0 0 0 0 0 0 0 0 -1 0 -1 -22 -26 -37 0 0 0 0 0 0
0 0 0 0 0 0 0 0 0 0 0 0 0 0 0 0 0 0 0 0 0 0 0 0 0 0 0 0 -1 0 0 0 0 0 -7 -19 -8 0 -8 -9 0 0 0 0 0
0 0 0 0 0 0 0 0 0 0 0 0 0 0 0 0 0 0 0 0 0 0 -1 0 0 0 0 0 -1 -1 0 0 0 0 0 0 -1 -12 0 -1 0 0 0 0 0
0 0 0 0 0 0 0 0 0 0 0 0 0 0 -1 0 -1 -1 -1 0 0 -1 -2 0 0 0 0 0 0 0 0 0 0 0 0 0 0 -2 -4 -25 -51 0 0 0 0
Wind_Speed
17 17 17 18 18 17 17 17 18 19 18 20 21 22 23 23 24 22 23 20 17 22 27 21 17 13 13 17 20 15 17 19 24 24 17 10 10 13 14 16 17 11 11 3 22
18 17 18 18 19 19 18 18 19 19 19 20 21 21 23 24 25 25 11 13 18 22 16 19 21 18 14 16 15 20 16 26 22 19 18 11 11 12 13 15 17 15 4 16 21
19 19 19 19 19 19 19 19 19 20 19 21 21 20 21 22 19 7 14 18 20 14 19 21 19 16 19 19 22 22 24 19 23 19 17 15 11 10 14 17 19 19 15 20 22
20 20 20 20 20 20 20 19 20 21 21 21 21 20 18 13 10 10 11 19 16 4 13 17 21 23 16 25 25 26 26 25 27 18 15 18 18 18 13 17 15 20 22 22 23
23 21 21 21 21 21 21 20 21 21 22 22 20 19 15 12 23 26 24 11 12 10 13 17 21 21 27 17 23 30 26 26 23 23 24 17 20 19 17 11 11 8 23 23 22
25 24 23 22 21 21 19 20 22 23 22 22 21 19 17 28 10 13 13 8 12 11 10 13 9 21 22 27 28 23 28 26 25 24 22 24 23 21 20 14 16 9 17 20 22
27 26 24 23 21 20 18 19 21 24 24 23 21 14 19 29 12 15 17 23 21 18 18 14 12 10 11 22 26 24 27 23 26 27 27 20 29 30 23 18 15 15 15 19 22
27 27 26 23 22 19 17 17 19 24 26 24 22 17 18 12 13 18 15 15 16 16 16 16 11 12 8 12 17 22 25 23 29 23 25 24 26 25 26 24 21 18 18 19 22
30 28 27 23 21 17 14 16 19 25 26 22 17 13 14 3 10 9 9 11 9 11 12 10 8 8 10 19 15 17 23 34 30 27 24 28 28 24 22 28 25 21 19 19 20
28 30 27 22 18 14 10 13 20 22 13 10 8 3 10 9 4 7 6 8 10 10 12 12 8 7 12 17 23 28 33 31 30 29 27 30 26 25 21 28 30 25 22 20 20
28 29 25 23 16 11 2 7 9 8 8 9 7 14 21 12 18 20 20 18 15 12 12 12 13 20 36 30 28 28 30 33 25 24 26 29 26 26 26 23 27 22 24 23 22
28 27 26 22 16 10 3 4 4 4 11 17 22 22 22 15 10 11 6 10 14 20 15 16 25 36 28 27 26 31 33 33 26 24 20 23 27 24 25 27 27 27 26 25 22
26 27 19 21 16 8 6 4 5 2 8 9 4 5 2 10 9 6 4 6 12 16 18 25 27 23 27 30 33 31 31 29 26 20 18 19 24 20 26 28 26 25 25 27 26
26 21 25 24 10 8 5 8 3 2 6 5 6 6 7 4 7 11 12 6 7 12 16 22 26 28 27 30 33 30 31 26 26 19 11 22 14 28 24 24 26 25 25 25 25
26 15 28 18 12 7 9 8 4 4 5 4 5 4 2 6 9 2 6 9 19 20 18 22 15 22 28 34 32 31 26 28 29 20 19 19 13 21 24 28 27 26 26 23 23
23 30 31 12 6 10 11 7 5 4 7 4 4 5 6 8 11 9 13 13 16 23 23 26 24 28 21 24 31 28 25 28 22 23 21 17 19 14 20 26 26 26 27 26 25
9 29 16 10 9 12 10 6 4 5 3 5 5 3 11 16 13 11 11 12 12 17 19 21 25 25 29 21 22 30 23 16 13 14 12 30 23 20 17 21 21 21 23 26 24
22 21 11 8 12 13 9 3 6 4 6 1 4 10 14 8 5 6 12 16 18 16 14 18 20 23 23 31 12 29 22 14 10 19 16 22 19 24 30 29 24 22 21 22 24
24 6 5 10 13 9 5 4 4 4 4 4 7 13 9 4 4 8 12 13 13 3 7 7 15 16 14 20 23 22 22 16 17 18 20 18 23 18 27 23 30 15 22 22 21
6 4 6 13 11 7 2 4 5 5 4 5 5 5 5 9 7 5 8 8 6 3 3 5 11 12 17 10 20 31 16 10 7 7 11 18 27 15 24 23 21 25 19 19 19
6 5 4 11 5 2 5 5 4 5 10 6 8 10 9 12 9 13 8 14 7 10 7 5 8 12 13 9 17 15 22 19 7 14 5 9 16 18 18 25 22 23 26 19 17
3 3 5 8 4 3 6 5 7 6 12 10 5 10 15 16 10 11 15 8 8 7 10 13 5 9 19 16 5 6 6 11 16 7 15 9 2 9 14 14 17 19 11 12 12
3 2 3 2 6 8 3 5 8 8 11 8 8 10 10 11 6 14 13 8 5 6 4 6 4 6 7 5 6 3 8 18 22 19 14 14 6 7 3 6 6 10 8 11 12
4 4 2 4 6 7 8 10 8 12 13 12 11 13 13 14 15 7 9 5 4 12 11 6 7 11 11 8 6 10 14 15 8 17 19 23 28 14 6 6 9 7 9 8 7
1 5 8 7 12 14 7 7 13 10 11 12 11 20 15 5 9 15 17 9 11 12 5 4 9 13 12 18 10 13 15 13 9 8 11 15 20 22 14 10 7 9 8 8 9
5 4 2 4 12 20 14 14 16 11 7 13 17 12 16 15 14 18 16 14 10 8 2 2 6 14 17 17 7 12 18 16 13 16 15 17 26 23 14 15 12 8 8 6 8
2 1 1 5 4 10 17 17 16 14 12 18 14 15 17 16 15 15 12 12 14 13 12 6 5 8 10 13 17 16 4 11 8 11 11 14 24 18 21 16 7 9 6 5 8
Wind_Direction
310 309 313 316 316 316 318 319 324 322 323 323 321 320 319 323 314 294 283 269 274 254 251 263 276 253 229 229 229 229 246 242 246 248 258 256 274 251 231 248 241 197 264 62 143
296 297 299 306 307 308 311 314 319 318 317 319 319 322 323 325 306 294 341 344 291 243 240 226 232 231 218 225 225 228 231 240 247 260 255 261 231 263 210 228 223 201 102 133 154
286 288 288 294 296 299 303 306 309 310 312 316 318 321 324 319 300 181 37 9 344 209 234 251 251 244 249 231 221 226 240 248 245 263 254 257 255 243 263 244 223 207 175 160 168
283 281 277 282 288 289 291 297 303 306 306 310 315 319 327 305 291 157 4 350 338 289 235 245 233 231 238 235 230 238 239 242 259 263 250 257 261 249 241 250 248 210 176 172 177
268 270 268 270 275 279 286 289 293 299 301 305 309 313 311 286 254 276 303 317 323 342 231 222 237 235 233 240 237 235 240 247 248 250 260 241 251 251 242 244 258 295 155 178 188
262 262 263 263 269 273 279 282 291 293 295 298 302 307 284 270 282 268 285 288 308 308 299 297 289 233 241 230 247 234 239 246 247 253 240 248 246 245 239 249 252 216 186 189 195
258 257 257 257 260 265 268 275 286 291 293 294 297 292 269 254 295 297 288 289 287 274 277 270 298 299 245 247 248 249 257 252 235 242 246 239 245 241 243 241 224 210 219 206 202
254 252 249 246 251 258 265 273 282 287 288 292 293 276 262 274 278 269 266 267 278 262 248 261 282 294 262 276 256 241 238 244 239 233 237 232 245 239 234 231 231 232 213 207 208
253 247 243 240 245 250 261 276 284 283 286 291 272 230 267 107 253 277 254 253 303 284 259 245 230 239 257 233 250 238 236 227 239 231 227 224 239 241 240 229 232 230 231 208 208
268 244 239 230 236 240 257 287 280 284 269 250 247 274 241 260 332 322 276 267 279 297 293 221 203 245 234 223 221 220 225 234 230 223 230 233 236 235 233 240 223 224 226 222 204
286 258 232 212 209 219 254 290 254 221 232 266 264 238 286 266 322 281 261 268 269 267 263 223 212 221 225 226 238 240 239 236 240 245 220 233 233 232 232 238 237 213 226 225 207
289 293 228 185 188 159 147 245 301 4 286 267 262 264 267 271 281 275 215 232 233 249 254 233 231 228 238 237 242 242 249 245 249 238 246 241 234 228 235 229 233 223 222 226 216
289 294 197 161 153 140 187 231 114 215 269 290 240 252 256 191 231 260 245 195 249 260 242 243 244 245 238 234 237 233 240 244 256 242 243 252 244 231 228 228 229 230 229 221 221
293 301 160 138 130 131 144 194 177 252 285 196 199 198 172 230 240 225 232 262 252 260 246 256 260 256 247 236 234 235 231 230 252 232 232 221 243 225 221 222 227 225 227 229 224
292 281 147 143 120 123 137 158 174 225 293 113 149 86 195 253 331 115 171 266 269 267 261 251 257 240 246 246 235 242 237 234 228 239 245 227 237 237 206 221 222 219 225 225 229
296 156 145 117 97 128 142 148 178 192 241 175 163 207 258 248 277 257 262 261 266 272 267 263 265 267 260 269 239 245 240 246 233 245 235 213 216 232 225 207 217 216 216 220 220
263 160 140 124 122 144 142 145 136 220 123 180 229 226 287 293 301 284 276 282 268 284 271 274 252 241 248 258 257 231 230 233 193 233 219 206 223 221 234 220 220 212 215 214 212
146 126 105 104 132 144 144 139 206 176 237 153 265 280 284 321 295 292 281 282 268 276 281 271 271 254 217 220 255 219 216 213 234 214 217 210 212 226 222 258 231 222 210 211 213
113 90 97 139 136 156 152 196 209 183 271 282 281 270 271 209 249 309 270 273 278 268 258 307 267 325 273 197 214 235 225 251 263 293 242 214 224 211 218 228 235 244 205 213 219
108 79 125 137 149 149 190 224 198 183 277 258 272 282 268 304 311 254 288 291 289 200 148 306 296 287 263 232 235 231 236 197 231 258 219 231 203 211 209 206 213 213 211 219 219
72 93 125 124 106 176 225 212 177 197 228 237 267 260 271 270 261 282 269 296 346 327 292 259 245 284 306 222 240 234 231 232 293 210 293 215 213 203 221 189 203 204 216 208 200
66 93 174 134 185 210 224 183 164 187 221 239 263 276 269 270 262 261 266 275 6 329 307 299 282 273 272 273 312 231 306 277 234 216 210 288 160 163 214 172 198 207 203 201 208
77 99 176 188 219 211 162 185 184 186 203 219 228 224 239 261 276 239 261 280 266 319 314 336 292 305 254 110 52 342 321 319 255 219 242 208 193 179 109 193 145 181 153 173 183
131 146 149 229 271 265 196 208 202 214 224 227 247 244 255 262 253 269 286 293 297 299 303 292 296 329 314 348 336 298 313 311 329 230 228 231 246 188 190 139 158 149 161 191 176
109 197 184 192 223 226 211 197 205 197 210 212 235 240 241 227 266 266 265 281 311 289 307 19 281 296 306 298 270 268 284 289 299 298 254 211 257 219 191 130 129 168 143 161 174
161 186 183 276 218 206 197 207 218 197 203 212 229 220 226 236 250 279 287 282 275 297 324 302 281 311 299 288 272 283 262 251 266 282 278 251 240 245 245 122 120 125 148 153 160
144 87 164 178 200 197 211 220 209 197 224 241 230 235 242 251 268 281 295 287 278 271 286 276 294 321 290 315 319 277 303 231 211 250 277 261 228 234 217 249 185 135 163 162 152